Location: Saluda
(35.2377°N, 82.3468°W)
Time: 14:54:02
(UTC+00:00)

SR - Pass Details

Date: 14 October 2022
Orbit: 577 x 875 km, 66.7° (Epoch: 28 November)

Event Time Altitude Azimuth Distance (km) Brightness Sun altitude
Rises 22:17:00 0° 184° (S) 3,400 ? 6.8°
Reaches altitude 10° 22:19:35 10° 176° (S) 2,491 ? 6.3°
Maximum altitude 22:24:56 39° 110° (ESE) 1,287 ? 5.3°
Drops below altitude 10° 22:30:20 10° 43° (NE) 2,519 ? 4.2°
Sets 22:32:57 0° 36° (NE) 3,443 ? 3.7°
